CAPE
nan nan 0 1 1 0 0 1 nan nan nan nan nan nan nan 0 0 0 1 nan nan nan nan nan nan nan nan 5 15 15 20 24 25 25 27 27 34 34 42 47 47 51 59 70 70 82 85 86 86 86 90 97 109 109 123 133 133 139 144 146 146 142 144 146 146 158 165 185 204 204 195 186 172 172 165 161 159 159 158 152 152 146 141 140 140 148
nan nan 1 4 4 2 0 2 0 0 nan nan nan nan nan nan nan nan 2 0 0 nan nan nan nan nan nan 1 14 14 22 27 29 29 31 30 37 37 44 49 49 52 60 70 70 82 89 93 93 93 95 97 103 103 112 122 122 128 129 127 127 131 128 135 135 150 166 187 195 195 197 183 174 174 170 170 164 164 159 147 147 142 138 139 139 144
nan 0 2 4 4 2 0 2 1 1 0 nan nan nan nan nan nan nan 0 2 2 1 nan nan nan nan nan 0 12 12 18 25 29 29 31 33 36 36 42 50 50 54 60 70 70 82 93 99 99 100 104 108 105 105 105 111 111 114 111 108 108 106 112 120 120 131 155 173 185 185 189 181 169 169 160 165 159 159 145 144 144 143 141 145 145 144
0 0 1 1 1 0 0 0 0 0 1 1 0 0 0 0 0 0 0 1 1 3 1 nan nan nan nan nan 6 6 14 22 27 27 27 32 35 35 43 50 50 55 61 71 71 81 94 106 106 108 111 112 112 112 110 108 108 102 98 94 94 89 98 100 100 114 130 150 161 161 166 159 148 148 147 143 140 140 140 144 144 156 160 155 155 161
1 0 0 0 0 nan 1 1 3 3 2 1 1 1 1 1 0 0 2 3 3 3 2 nan nan nan nan nan 1 1 9 17 23 23 25 28 36 36 42 47 47 55 61 67 67 77 87 102 102 110 116 117 119 119 115 110 110 101 94 87 87 90 95 100 100 108 119 130 140 140 139 133 129 129 125 123 134 134 143 155 155 167 172 176 176 185
1 0 0 nan nan nan 0 0 1 1 1 1 2 2 1 2 1 1 1 1 1 1 1 nan nan nan nan nan 0 0 5 11 17 17 22 27 34 34 43 50 50 55 62 69 69 71 81 94 94 102 113 122 123 123 125 115 115 108 98 91 91 91 96 100 100 108 114 119 120 120 119 116 120 120 117 123 129 129 137 148 148 173 183 198 198 218
1 1 1 nan nan nan nan nan nan nan nan 0 1 1 4 5 4 4 1 1 1 0 0 nan nan nan nan nan 0 0 3 7 13 13 18 24 32 32 42 50 50 58 62 67 67 73 80 87 87 98 110 123 129 129 131 124 124 114 98 97 97 96 97 105 105 110 107 109 109 109 108 109 116 116 121 122 128 128 132 150 150 177 201 223 223 246
2 1 0 nan nan nan 0 1 1 1 1 2 1 1 3 2 2 2 5 8 8 7 3 0 0 nan nan nan nan nan nan nan nan nan 1 4 16 16 28 47 47 60 65 71 71 74 75 83 83 93 104 122 132 132 137 133 133 122 109 100 100 97 102 107 107 113 110 109 106 106 101 103 100 100 101 106 122 122 131 150 150 162 185 208 208 220
2 1 0 2 2 0 1 3 4 4 3 3 3 3 2 2 1 1 2 3 3 6 2 0 0 nan nan nan nan nan nan 0 nan nan nan nan nan nan 8 28 28 52 66 69 69 73 76 81 81 91 101 123 139 139 142 141 141 129 114 105 105 101 103 109 109 115 113 108 107 107 102 104 99 99 96 97 107 107 115 120 120 137 158 180 180 185
1 1 3 3 3 2 2 5 9 9 6 4 5 5 2 1 0 0 1 3 3 3 1 1 1 nan nan nan nan nan nan 1 10 10 15 7 13 13 10 15 15 23 55 62 62 72 74 79 79 82 94 113 135 135 152 144 144 136 124 114 114 106 112 114 114 118 117 112 111 111 107 98 93 93 87 93 94 94 99 103 103 107 129 138 138 151
2 2 1 3 3 4 3 3 7 7 8 5 7 7 2 2 1 1 1 1 1 2 1 1 1 nan nan nan nan nan nan nan 1 1 11 17 20 20 24 25 25 34 46 56 56 61 66 71 71 78 86 102 122 122 140 144 144 137 130 120 120 120 118 116 116 121 117 117 112 112 108 93 88 88 88 86 93 93 93 92 92 100 113 119 119 131
4 2 3 2 2 4 4 5 6 6 4 2 4 4 5 3 2 2 1 1 1 0 0 1 1 0 nan nan nan nan 0 0 0 0 1 4 8 8 10 12 12 20 28 41 41 51 63 68 68 72 73 82 112 112 137 137 137 141 133 129 129 126 129 124 124 116 116 118 112 112 104 98 92 92 87 88 92 92 95 99 99 105 111 120 120 124
4 2 1 1 1 2 3 2 1 1 3 0 0 0 1 0 1 1 2 2 2 0 0 0 0 0 0 nan nan nan nan 0 2 2 1 1 2 2 1 1 1 1 3 7 7 11 38 59 59 65 67 71 97 97 130 138 138 135 135 137 137 132 127 122 122 114 112 113 109 109 109 99 94 94 96 97 101 101 102 106 106 114 123 125 125 134
1 1 1 1 1 0 0 1 1 1 nan nan nan nan nan 0 1 1 0 1 1 1 0 nan nan 0 nan nan nan nan nan 1 2 2 2 3 2 2 0 0 0 0 1 1 1 4 18 24 24 21 49 56 79 79 98 129 129 140 134 132 132 129 125 116 116 118 116 118 114 114 110 109 111 111 109 110 112 112 119 122 122 130 137 143 143 138
0 0 0 nan nan 0 nan 0 0 0 nan nan nan nan 0 1 2 2 2 1 1 1 0 nan nan nan nan nan nan nan nan 1 1 1 2 2 2 2 0 0 0 1 1 2 2 3 13 10 10 4 6 22 29 29 45 86 86 131 115 124 124 121 114 111 111 117 114 122 122 122 118 118 120 120 123 124 133 133 140 137 137 146 151 150 150 145
0 nan nan 1 1 1 1 0 0 0 1 0 nan nan 0 0 1 1 1 1 1 1 0 nan nan nan nan 0 nan nan nan 1 0 0 1 1 2 2 1 0 0 1 2 3 3 3 4 3 3 3 1 13 30 30 24 48 48 81 86 98 98 102 109 108 108 113 124 129 134 134 134 129 132 132 135 141 149 149 154 162 162 163 162 158 158 145
0 nan nan nan nan 0 1 0 0 0 1 0 0 0 1 0 1 1 0 0 0 0 0 nan nan nan nan 0 0 0 1 0 2 2 1 1 2 2 3 1 1 2 3 4 4 3 3 2 2 2 3 13 21 21 22 26 26 40 59 72 72 81 94 105 105 115 129 138 145 145 144 144 146 146 147 154 165 165 165 174 174 175 173 160 160 138
1 0 nan nan nan 0 1 0 0 0 0 1 1 1 2 2 1 1 1 0 0 nan nan nan nan nan nan nan nan nan 1 0 2 2 1 2 1 1 3 1 1 3 3 3 3 3 2 2 2 2 5 21 20 20 20 20 20 26 32 53 53 65 80 95 95 113 129 141 151 151 158 158 156 156 158 163 169 169 175 184 184 182 171 156 156 131
0 0 nan nan nan 0 0 1 2 2 1 1 0 0 2 3 2 2 1 1 1 0 nan nan nan nan nan nan nan nan 1 nan 0 0 1 1 1 1 1 1 1 3 2 2 2 2 2 3 3 9 20 27 25 25 23 20 20 20 23 31 31 47 59 78 78 100 120 142 155 155 165 169 168 168 170 176 180 180 186 187 187 179 165 136 136 114
0 nan nan nan nan 0 0 1 2 2 3 2 2 2 3 3 2 2 1 0 0 0 0 nan nan nan 0 nan nan nan 0 nan 1 1 3 1 1 1 1 2 2 2 2 1 1 2 3 4 4 11 25 30 31 31 28 26 26 24 23 30 30 34 44 63 63 80 111 135 151 151 167 177 183 183 185 186 183 183 187 184 184 167 151 125 125 99
0 1 0 0 0 nan nan 4 3 3 4 5 4 4 4 2 1 1 1 1 1 1 1 0 0 1 0 0 nan nan 0 nan nan nan 2 3 1 1 1 1 1 1 1 1 1 1 3 4 4 6 19 31 36 36 35 31 31 25 25 28 28 33 39 53 53 74 101 125 145 145 169 180 188 188 195 196 192 192 186 172 172 164 139 114 114 90
1 nan 1 4 4 0 1 3 5 5 6 6 4 4 3 1 0 0 1 0 0 1 2 1 1 0 0 0 0 0 0 nan nan nan 0 1 2 2 1 1 1 1 1 0 0 1 2 2 2 4 19 34 37 37 38 36 36 35 29 28 28 32 38 49 49 71 90 121 141 141 163 184 192 192 199 195 190 190 178 166 166 155 131 107 107 80
0 1 6 11 11 4 2 nan 3 3 8 9 6 6 1 nan nan nan nan nan nan nan 0 0 0 1 0 nan 0 0 nan 0 nan nan nan 0 1 1 1 2 2 1 0 0 0 0 1 1 1 2 14 33 36 36 39 41 41 40 41 39 39 40 46 58 58 73 94 118 138 138 167 183 200 200 201 196 187 187 177 163 163 147 118 96 96 77
4 4 3 6 6 1 0 nan 0 0 4 7 3 3 nan nan nan nan nan nan nan nan 0 1 1 1 2 2 nan nan 0 0 nan nan nan 1 1 1 0 0 0 3 1 0 0 nan 0 1 1 1 5 25 31 31 37 43 43 47 50 51 51 54 59 69 69 87 102 123 142 142 168 186 197 197 198 187 176 176 161 155 155 135 110 88 88 77
5 6 3 4 4 1 0 nan nan nan 0 2 2 2 0 0 0 0 0 1 1 2 2 3 3 2 4 6 2 2 1 1 nan nan nan nan 0 0 nan 0 0 1 2 1 1 0 0 1 1 2 2 12 25 25 33 40 40 48 57 62 62 67 76 87 87 102 117 129 143 143 167 187 193 193 185 171 162 162 145 141 141 121 102 87 87 77
9 9 9 7 7 7 11 9 11 11 7 1 0 0 0 3 4 4 4 3 3 5 5 4 4 5 4 3 4 4 1 0 nan nan 0 nan nan nan nan 0 0 1 3 2 2 2 2 1 1 2 2 5 22 22 27 37 37 46 56 65 65 76 86 99 99 112 123 140 150 150 170 183 180 180 164 152 140 140 126 116 116 103 92 82 82 79
50 60 79 80 80 60 28 23 26 26 29 15 1 1 nan 1 1 1 0 2 2 2 2 2 2 4 5 4 5 5 6 3 nan nan nan 0 0 0 nan 0 0 1 3 2 2 3 5 4 4 3 2 3 12 12 27 31 31 42 52 64 64 75 87 98 98 118 131 143 157 157 165 171 159 159 143 130 116 116 108 101 101 90 90 80 80 77
60 77 82 102 102 112 94 55 39 39 38 38 31 31 6 0 nan nan 0 0 0 1 0 2 2 2 2 3 4 4 8 4 nan nan nan 0 0 0 nan 0 0 1 4 4 4 8 16 9 9 5 5 5 8 8 18 28 28 37 47 58 58 71 80 99 99 114 125 136 139 139 147 143 128 128 119 104 101 101 93 87 87 86 87 74 74 56
31 48 66 81 81 107 134 124 97 97 75 66 67 67 18 nan nan nan 1 0 0 nan nan 1 1 1 1 1 1 1 2 4 2 2 1 1 1 1 0 nan nan 1 4 5 5 10 15 12 12 7 6 9 8 8 11 22 22 30 42 55 55 65 78 90 90 103 113 117 119 119 124 115 105 105 93 89 87 87 89 87 87 89 78 70 70 58
12 14 24 39 39 66 95 103 134 134 134 111 89 89 41 1 0 0 0 0 0 nan 0 2 2 1 0 0 0 0 1 2 5 5 1 1 0 0 0 0 0 1 3 6 6 6 10 13 13 10 7 11 7 7 6 10 10 13 27 48 48 60 69 76 76 88 95 94 102 102 104 95 87 87 81 77 83 83 93 94 94 87 66 60 60 56
5 5 4 6 6 11 18 23 70 70 136 153 121 121 56 5 1 1 1 0 0 0 1 1 1 0 0 nan 0 0 3 6 6 6 0 1 nan nan 0 nan nan 0 2 3 3 6 7 8 8 12 10 8 6 6 3 3 3 5 8 23 23 47 63 70 70 76 80 81 86 86 85 81 75 75 78 82 89 89 101 113 113 93 61 58 58 57
1 nan nan 0 0 2 4 6 5 5 6 6 12 12 29 9 2 2 1 1 1 1 nan nan nan nan 0 0 1 1 1 1 8 8 0 nan nan nan nan nan nan nan 0 4 4 4 3 5 5 8 11 7 6 6 6 3 3 1 1 6 6 14 40 53 53 59 63 77 82 82 86 87 92 92 100 112 118 118 132 135 135 125 79 56 56 47
0 0 nan 0 0 0 0 1 6 6 7 4 3 3 4 7 6 6 1 0 0 0 nan nan nan 0 nan 0 0 0 1 0 14 14 8 nan nan nan nan nan nan 0 0 0 0 4 4 5 5 9 12 15 10 10 6 5 5 3 1 1 1 5 18 30 30 37 50 61 71 71 93 94 108 108 114 125 136 136 142 148 148 140 111 50 50 42
2 2 1 0 0 nan nan 1 3 3 5 5 7 7 6 5 7 7 3 0 0 1 0 nan nan 1 nan nan 0 0 3 4 14 14 13 nan nan nan nan nan nan 0 1 1 1 2 4 6 6 9 11 18 17 17 8 6 6 5 2 0 0 0 3 12 12 18 26 32 30 30 56 64 105 105 110 120 129 129 139 143 143 143 133 73 73 45
3 1 1 0 0 nan nan 0 1 1 2 3 5 5 5 5 4 4 5 1 1 1 0 nan nan 0 0 nan nan nan 1 2 10 10 16 nan nan nan nan nan nan nan 1 1 1 1 2 3 3 9 12 10 11 11 9 7 7 6 5 3 3 1 0 2 2 5 16 19 23 23 20 31 47 47 69 88 107 107 119 128 128 132 133 119 119 77
5 6 2 1 1 nan 0 1 1 1 1 2 3 3 3 2 2 2 2 3 3 3 1 nan nan nan nan 0 0 0 0 nan 5 5 14 1 nan nan 0 0 0 0 0 1 1 1 1 2 2 7 13 11 9 9 6 6 6 5 5 5 5 4 1 0 0 0 3 7 12 12 14 18 26 26 35 59 77 77 93 105 105 104 112 112 112 95
6 5 5 5 5 1 1 0 0 0 0 1 2 2 2 0 1 1 2 5 5 2 1 1 1 1 2 nan nan nan 0 0 2 2 8 3 nan nan 1 0 0 1 nan 0 0 1 2 2 2 4 6 8 6 6 8 5 5 2 3 3 3 3 2 1 1 0 nan 1 2 2 3 3 5 5 9 33 38 38 60 76 76 77 79 88 88 84
6 4 5 5 5 4 2 0 nan nan nan nan 1 1 2 1 1 1 2 4 4 5 0 0 0 0 1 2 nan nan nan 2 2 2 2 7 1 1 0 1 1 1 0 0 0 0 2 2 2 2 3 4 8 8 9 5 5 2 1 2 2 2 2 1 1 0 nan nan 0 0 0 0 0 0 1 2 2 2 3 6 6 18 32 35 35 56
8 7 5 5 5 6 5 1 nan nan nan nan 1 1 2 5 5 5 4 3 3 4 4 2 2 1 nan nan 0 0 0 nan nan nan nan 4 8 8 4 2 2 1 3 1 1 0 1 3 3 1 2 3 5 5 6 5 5 3 1 1 1 1 2 2 2 1 0 nan nan nan nan nan nan nan nan nan nan nan nan nan nan 1 5 6 6 20
4 6 6 8 8 7 6 6 2 2 nan nan 1 1 5 5 6 6 6 3 3 4 6 8 8 5 2 4 7 7 5 0 1 1 nan nan 12 12 8 3 3 3 5 5 5 3 2 2 2 3 3 2 3 3 5 5 5 7 4 0 0 0 2 1 1 0 nan nan nan nan nan nan nan nan nan nan nan nan nan nan nan nan 0 0 0 1
5 3 3 3 3 6 6 8 5 5 nan nan nan nan 2 2 1 1 3 3 3 5 3 9 9 7 6 6 6 6 6 5 10 10 nan nan 5 5 12 8 8 4 4 6 6 7 5 3 3 4 3 2 4 4 5 5 5 14 9 2 2 1 1 1 1 0 0 nan nan nan nan nan 0 0 0 0 nan nan nan nan nan nan nan nan nan nan
12 7 6 6 6 3 3 3 4 4 nan nan nan nan 1 1 0 0 1 2 2 4 6 4 4 5 4 7 7 7 7 8 8 8 1 nan 0 0 10 13 13 8 6 7 7 7 11 8 8 4 4 5 5 5 4 7 7 12 13 4 4 3 5 6 6 1 0 nan nan nan 1 0 nan nan 0 0 nan nan 0 nan nan 0 1 nan nan nan
13 9 8 10 10 10 8 5 1 1 nan nan 0 0 0 1 1 1 2 2 2 3 2 3 3 4 4 6 7 7 8 8 9 9 6 0 0 0 5 8 8 9 9 6 6 8 15 15 15 8 7 6 7 7 9 9 9 9 14 13 13 8 4 4 4 3 0 0 0 0 0 0 nan nan 0 0 0 0 1 2 2 5 4 0 0 nan
16 14 12 11 11 13 13 8 2 2 nan nan 0 0 0 1 2 2 1 1 1 2 3 1 1 2 4 3 7 7 7 8 10 10 12 16 4 4 5 5 5 13 10 8 8 11 12 16 16 13 13 8 7 7 8 10 10 10 10 14 14 11 5 5 5 3 1 0 0 0 0 nan nan nan 0 2 1 1 2 2 2 1 5 1 1 0
18 15 12 14 14 18 15 11 5 5 nan nan 0 0 0 1 3 3 1 1 1 2 3 1 1 1 2 3 6 6 6 6 8 8 10 24 31 31 11 4 4 6 7 8 8 11 11 12 12 16 18 13 7 7 9 8 8 11 15 17 17 13 7 7 7 4 1 1 0 0 0 0 0 0 0 1 2 2 2 3 3 2 2 2 2 0
17 16 13 16 16 19 20 16 8 8 1 0 nan nan nan 1 1 1 2 1 1 1 3 2 2 1 1 2 4 4 4 5 7 7 8 12 19 19 19 12 12 6 4 6 6 9 8 10 10 14 15 13 15 15 16 13 13 12 12 15 15 14 10 8 8 5 2 1 0 0 1 1 1 1 1 3 2 2 3 3 3 2 2 1 1 0
17 17 20 23 23 23 21 15 10 10 3 0 nan nan nan 0 0 0 1 0 0 0 2 3 3 2 2 1 2 2 2 3 6 6 6 8 12 12 12 15 15 22 12 9 9 9 14 13 13 17 12 10 18 18 21 15 15 13 11 11 11 9 8 5 5 3 2 1 1 1 3 2 1 1 4 4 3 3 3 3 3 3 2 1 1 1
22 24 28 33 33 27 26 19 10 10 8 3 1 1 nan nan nan nan 0 1 1 1 4 3 3 2 2 2 2 2 1 2 4 4 5 6 12 12 11 9 9 13 21 25 25 23 20 21 21 23 18 19 20 20 26 24 24 18 12 10 10 7 5 4 4 3 3 3 6 6 6 2 3 3 5 3 3 3 3 4 4 4 4 1 1 1
20 27 32 38 38 37 29 21 11 11 9 4 1 1 0 1 7 7 1 0 0 0 1 2 2 2 2 1 3 3 3 2 3 3 2 3 4 4 7 11 11 9 9 18 18 24 31 37 37 39 24 23 22 22 25 27 27 19 9 5 5 4 2 2 2 4 2 3 14 14 11 2 2 2 3 3 3 3 3 3 3 3 3 3 3 1
20 30 34 37 37 38 32 24 14 14 9 6 0 0 0 0 2 2 1 nan nan 0 0 1 1 1 3 3 2 2 2 1 2 2 2 2 1 1 3 6 6 9 10 9 9 10 17 34 34 55 59 41 26 26 23 23 23 15 8 4 4 2 2 1 1 2 1 2 13 13 14 5 2 2 1 3 4 4 4 3 3 4 2 2 2 2
28 32 39 38 38 41 34 27 17 17 10 8 2 2 1 nan 0 0 nan 0 0 0 nan 1 1 1 2 4 4 4 4 3 1 1 2 1 1 1 1 2 2 5 4 3 3 6 7 10 10 20 53 82 51 51 25 22 22 14 6 1 1 3 1 2 2 2 2 1 4 4 10 7 2 2 1 3 5 5 4 3 3 3 2 3 3 4
CIN
nan nan -0 -0 -0 -0 -0 -0 nan nan nan nan nan nan nan -0 -0 -0 -0 nan nan nan nan nan nan nan nan -0 -0 -0 -0 -0 -0 -0 -0 -0 -0 -0 -0 -0 -0 -0 -0 -0 -0 -0 -0 -0 -0 -0 -0 -0 -0 -0 -0 -0 -0 -0 -0 -0 -0 -0 -0 -0 -0 -0 -0 -0 -0 -0 -0 -0 -0 -0 -0 -0 -0 -0 -0 -0 -0 -0 -0 -0 -0 -0
nan nan -0 -0 -0 -0 -0 -0 -0 -0 nan nan nan nan nan nan nan nan -0 -0 -0 nan nan nan nan nan nan -0 -0 -0 -0 -0 -0 -0 -0 -0 -0 -0 -0 -0 -0 -0 -0 -0 -0 -0 -0 -0 -0 -0 -0 -0 -0 -0 -0 -0 -0 -0 -0 -0 -0 -0 -0 -0 -0 -0 -0 -0 -0 -0 -0 -0 -0 -0 -0 -0 -0 -0 -0 -0 -0 -0 -0 -0 -0 -0
nan -0 -0 -0 -0 -0 -0 -0 -0 -0 -0 nan nan nan nan nan nan nan -0 -0 -0 -0 nan nan nan nan nan -0 -0 -0 -0 -0 -0 -0 -0 -0 -0 -0 -0 -0 -0 -0 -0 -0 -0 -0 -0 -0 -0 -0 -0 -0 -0 -0 -0 -0 -0 -0 -0 -0 -0 -0 -0 -0 -0 -0 -0 -0 -0 -0 -0 -0 -0 -0 -0 -0 -0 -0 -0 -0 -0 -0 -0 -0 -0 -0
-0 -0 -0 -0 -0 -0 -0 -0 -0 -0 -0 -0 -0 -0 -0 -0 -0 -0 -0 -0 -0 -0 -0 nan nan nan nan nan -0 -0 -0 -0 -0 -0 -0 -0 -0 -0 -0 -0 -0 -0 -0 -0 -0 -0 -0 -0 -0 -0 -0 -0 -0 -0 -0 -0 -0 -0 -0 -0 -0 -0 -0 -0 -0 -0 -0 -0 -0 -0 -0 -0 -0 -0 -0 -0 -0 -0 -0 -0 -0 -0 -0 -0 -0 -0
-0 -0 -0 -0 -0 nan -0 -0 -0 -0 -0 -0 -0 -0 -0 -0 -0 -0 -0 -0 -0 -0 -0 nan nan nan nan nan -0 -0 -0 -0 -0 -0 -0 -0 -0 -0 -0 -0 -0 -0 -0 -0 -0 -0 -0 -0 -0 -0 -0 -0 -0 -0 -0 -0 -0 -0 -0 -0 -0 -0 -0 -0 -0 -0 -0 -0 -0 -0 -0 -0 -0 -0 -0 -0 -0 -0 -0 -0 -0 -0 -0 -0 -0 -0
-0 -0 -0 nan nan nan -0 -0 -0 -0 -0 -0 -0 -0 -0 -0 -0 -0 -0 -0 -0 -0 -0 nan nan nan nan nan -0 -0 -0 -0 -0 -0 -0 -0 -0 -0 -0 -0 -0 -0 -0 -0 -0 -0 -0 -0 -0 -0 -0 -0 -0 -0 -0 -0 -0 -0 -0 -0 -0 -0 -0 -0 -0 -0 -0 -0 -0 -0 -0 -0 -0 -0 -0 -0 -0 -0 -0 -0 -0 -0 -0 -0 -0 -0
-0 -0 -0 nan nan nan nan nan nan nan nan -0 -0 -0 -0 -0 -0 -0 -0 -0 -0 -0 -0 nan nan nan nan nan -0 -0 -0 -0 -0 -0 -0 -0 -0 -0 -0 -0 -0 -0 -0 -0 -0 -0 -0 -0 -0 -0 -0 -0 -0 -0 -0 -0 -0 -0 -0 -0 -0 -0 -0 -0 -0 -0 -0 -0 -0 -0 -0 -0 -0 -0 -0 -0 -0 -0 -0 -0 -0 -0 -0 -0 -0 -0
-0 -0 -0 nan nan nan -0 -0 -0 -0 -0 -0 -0 -0 -0 -0 -0 -0 -0 -0 -0 -0 -0 -0 -0 nan nan nan nan nan nan nan nan nan -0 -0 -0 -0 -0 -0 -0 -0 -0 -0 -0 -0 -0 -0 -0 -0 -0 -0 -0 -0 -0 -0 -0 -0 -0 -0 -0 -0 -0 -0 -0 -0 -0 -0 -0 -0 -0 -0 -0 -0 -0 -0 -0 -0 -0 -0 -0 -0 -0 -0 -0 -0
-0 -0 -0 -0 -0 -1 -1 -0 -0 -0 -0 -0 -0 -0 -0 -0 -0 -0 -0 -0 -0 -0 -0 -0 -0 nan nan nan nan nan nan -0 nan nan nan nan nan nan -0 -0 -0 -0 -0 -0 -0 -0 -0 -0 -0 -0 -0 -0 -0 -0 -0 -0 -0 -0 -0 -0 -0 -0 -0 -0 -0 -0 -0 -0 -0 -0 -0 -0 -0 -0 -0 -0 -0 -0 -0 -0 -0 -0 -0 -0 -0 -0
-5 -2 -1 -1 -1 -2 -4 -0 -0 -0 -0 -0 -0 -0 -0 -0 -0 -0 -0 -0 -0 -0 -0 -0 -0 nan nan nan nan nan nan -0 -0 -0 -0 -0 -0 -0 -0 -0 -0 -0 -0 -0 -0 -0 -0 -0 -0 -0 -0 -0 -0 -0 -0 -0 -0 -0 -0 -0 -0 -0 -0 -0 -0 -0 -0 -0 -0 -0 -0 -0 -0 -0 -0 -0 -0 -0 -0 -0 -0 -0 -0 -0 -0 -0
-2 -3 -5 -2 -2 -1 -5 -1 -0 -0 -0 -0 -0 -0 -0 -0 -0 -0 -0 -0 -0 -0 -0 -0 -0 nan nan nan nan nan nan nan -0 -0 -0 -0 -0 -0 -0 -0 -0 -0 -0 -0 -0 -0 -0 -0 -0 -0 -0 -0 -0 -0 -0 -0 -0 -0 -0 -0 -0 -0 -0 -0 -0 -0 -0 -0 -0 -0 -0 -0 -0 -0 -0 -0 -0 -0 -0 -0 -0 -0 -0 -0 -0 -0
-1 -1 -3 -4 -4 -2 -3 -0 -0 -0 -2 -0 -0 -0 -0 -0 -0 -0 -0 -0 -0 -0 -0 -0 -0 -0 nan nan nan nan -0 -0 -0 -0 -0 -0 -0 -0 -0 -0 -0 -0 -0 -0 -0 -0 -0 -0 -0 -0 -0 -0 -0 -0 -0 -0 -0 -0 -0 -0 -0 -0 -0 -0 -0 -0 -0 -0 -0 -0 -0 -0 -0 -0 -0 -0 -0 -0 -0 -0 -0 -0 -0 -0 -0 -0
-0 -0 -2 -2 -2 -0 -0 -2 -4 -4 -1 -0 -0 -0 -0 -0 -1 -1 -0 -0 -0 -0 -0 -0 -0 -0 -0 nan nan nan nan -0 -0 -0 -0 -0 -0 -0 -0 -0 -0 -0 -0 -0 -0 -0 -0 -0 -0 -0 -0 -0 -0 -0 -0 -0 -0 -0 -0 -0 -0 -0 -0 -0 -0 -0 -0 -0 -0 -0 -0 -0 -0 -0 -0 -0 -0 -0 -0 -0 -0 -0 -0 -0 -0 -0
-0 -0 -0 -0 -0 -0 -1 -0 -0 -0 nan nan nan nan nan -0 -0 -0 -0 -0 -0 -0 -0 nan nan -0 nan nan nan nan nan -0 -0 -0 -0 -0 -0 -0 -0 -0 -0 -0 -0 -0 -0 -0 -0 -0 -0 -0 -0 -0 -0 -0 -0 -0 -0 -0 -0 -0 -0 -0 -0 -0 -0 -0 -0 -0 -0 -0 -0 -0 -0 -0 -0 -0 -0 -0 -0 -0 -0 -0 -0 -0 -0 -0
-0 -0 -0 nan nan -0 nan -0 -0 -0 nan nan nan nan -0 -0 -0 -0 -0 -0 -0 -0 -0 nan nan nan nan nan nan nan nan -0 -0 -0 -0 -0 -0 -0 -0 -0 -0 -0 -0 -0 -0 -0 -0 -0 -0 -0 -0 -0 -0 -0 -0 -0 -0 -0 -0 -0 -0 -0 -0 -0 -0 -0 -0 -0 -0 -0 -0 -0 -0 -0 -0 -0 -0 -0 -0 -0 -0 -0 -0 -0 -0 -0
-0 nan nan -0 -0 -0 -0 -0 -0 -0 -0 -0 nan nan -0 -0 -0 -0 -0 -0 -0 -0 -0 nan nan nan nan -0 nan nan nan -0 -0 -0 -0 -0 -0 -0 -0 -0 -0 -0 -0 -0 -0 -0 -0 -0 -0 -0 -0 -0 -0 -0 -0 -0 -0 -0 -0 -0 -0 -0 -0 -0 -0 -0 -0 -0 -0 -0 -0 -0 -0 -0 -0 -0 -0 -0 -0 -0 -0 -0 -0 -0 -0 -0
-1 nan nan nan nan -0 -0 -0 -0 -0 -0 -0 -0 -0 -0 -0 -0 -0 -0 -0 -0 -0 -0 nan nan nan nan -0 -0 -0 -0 -0 -0 -0 -0 -0 -0 -0 -0 -0 -0 -0 -0 -0 -0 -0 -0 -0 -0 -0 -0 -0 -0 -0 -0 -0 -0 -0 -0 -0 -0 -0 -0 -0 -0 -0 -0 -0 -0 -0 -0 -0 -0 -0 -0 -0 -0 -0 -0 -0 -0 -0 -0 -0 -0 -0
-0 -1 nan nan nan -1 -1 -1 -0 -0 -2 -0 -0 -0 -0 -0 -0 -0 -0 -0 -0 nan nan nan nan nan nan nan nan nan -0 -0 -0 -0 -0 -0 -0 -0 -0 -0 -0 -0 -0 -0 -0 -0 -0 -0 -0 -0 -0 -0 -0 -0 -0 -0 -0 -0 -0 -0 -0 -0 -0 -0 -0 -0 -0 -0 -0 -0 -0 -0 -0 -0 -0 -0 -0 -0 -0 -0 -0 -0 -0 -0 -0 -0
-1 -3 nan nan nan -4 -4 -7 -3 -3 -3 -1 -1 -1 -0 -0 -0 -0 -0 -0 -0 -0 nan nan nan nan nan nan nan nan -0 nan -0 -0 -0 -0 -0 -0 -0 -0 -0 -0 -0 -0 -0 -0 -0 -0 -0 -0 -0 -0 -0 -0 -0 -0 -0 -0 -0 -0 -0 -0 -0 -0 -0 -0 -0 -0 -0 -0 -0 -0 -0 -0 -0 -0 -0 -0 -0 -0 -0 -0 -0 -0 -0 -0
-3 nan nan nan nan -4 -3 -4 -4 -4 -2 -0 -0 -0 -0 -0 -0 -0 -0 -0 -0 -0 -0 nan nan nan -0 nan nan nan -0 nan -0 -0 -0 -0 -0 -0 -0 -0 -0 -0 -0 -0 -0 -0 -0 -0 -0 -0 -0 -0 -0 -0 -0 -0 -0 -0 -0 -0 -0 -0 -0 -0 -0 -0 -0 -0 -0 -0 -0 -0 -0 -0 -0 -0 -0 -0 -0 -0 -0 -0 -0 -0 -0 -0
-2 -4 -8 -11 -11 nan nan -6 -1 -1 -1 -0 -0 -0 -0 -0 -0 -0 -0 -0 -0 -0 -0 -0 -0 -0 -0 -0 nan nan -0 nan nan nan -0 -0 -0 -0 -0 -0 -0 -0 -0 -0 -0 -0 -0 -0 -0 -0 -0 -0 -0 -0 -0 -0 -0 -0 -0 -0 -0 -0 -0 -0 -0 -0 -0 -0 -0 -0 -0 -0 -0 -0 -0 -0 -0 -0 -0 -0 -0 -0 -0 -0 -0 -0
-0 nan -5 -8 -8 -8 -6 -7 -3 -3 -0 -2 -1 -1 -0 -0 -0 -0 -0 -0 -0 -0 -0 -0 -0 -0 -0 -0 -0 -0 -0 nan nan nan -0 -0 -0 -0 -0 -0 -0 -0 -0 -0 -0 -0 -0 -0 -0 -0 -0 -0 -0 -0 -0 -0 -0 -0 -0 -0 -0 -0 -0 -0 -0 -0 -0 -0 -0 -0 -0 -0 -0 -0 -0 -0 -0 -0 -0 -0 -0 -0 -0 -0 -0 -0
-0 -0 -0 -1 -1 -4 -6 nan -4 -4 -1 -2 -0 -0 -1 nan nan nan nan nan nan nan -0 -0 -0 -0 -0 nan -0 -0 nan -1 nan nan nan -0 -0 -0 -0 -0 -0 -0 -0 -0 -0 -0 -0 -0 -0 -0 -0 -0 -0 -0 -0 -0 -0 -0 -0 -0 -0 -0 -0 -0 -0 -0 -0 -0 -0 -0 -0 -0 -0 -0 -0 -0 -0 -0 -0 -0 -0 -0 -0 -0 -0 -0
-1 -1 -0 -0 -0 -3 -4 nan -4 -4 -3 -2 -1 -1 nan nan nan nan nan nan nan nan -0 -0 -0 -0 -0 -0 nan nan -0 -0 nan nan nan -0 -0 -0 -0 -0 -0 -0 -0 -0 -0 nan -0 -0 -0 -0 -0 -0 -0 -0 -0 -0 -0 -0 -0 -0 -0 -0 -0 -0 -0 -0 -0 -0 -0 -0 -0 -0 -0 -0 -0 -0 -0 -0 -0 -0 -0 -0 -0 -0 -0 -0
-2 -2 -1 -0 -0 -1 -3 nan nan nan -3 -2 -2 -2 -4 -1 -0 -0 -0 -2 -2 -2 -0 -0 -0 -0 -0 -0 -0 -0 -0 -0 nan nan nan nan -0 -0 nan -0 -0 -0 -0 -0 -0 -0 -0 -0 -0 -0 -0 -0 -0 -0 -0 -0 -0 -0 -0 -0 -0 -0 -0 -0 -0 -0 -0 -0 -0 -0 -0 -0 -0 -0 -0 -0 -0 -0 -0 -0 -0 -0 -0 -0 -0 -0
-0 -2 -2 -0 -0 -0 -0 -0 -0 -0 -0 -1 -2 -2 -2 -0 -1 -1 -3 -1 -1 -0 -0 -0 -0 -0 -0 -0 -0 -0 -0 -2 nan nan -0 nan nan nan nan -0 -0 -0 -0 -0 -0 -0 -0 -0 -0 -0 -0 -0 -0 -0 -0 -0 -0 -0 -0 -0 -0 -0 -0 -0 -0 -0 -0 -0 -0 -0 -0 -0 -0 -0 -0 -0 -0 -0 -0 -0 -0 -0 -0 -0 -0 -0
-0 -0 -0 -0 -0 -0 -0 -0 -0 -0 -0 -0 -0 -0 nan -1 -0 -0 -0 -0 -0 -0 -0 -0 -0 -0 -0 -0 -0 -0 -0 -1 nan nan nan -0 -0 -0 nan -0 -0 -0 -0 -0 -0 -0 -0 -0 -0 -0 -0 -0 -0 -0 -0 -0 -0 -0 -0 -0 -0 -0 -0 -0 -0 -0 -0 -0 -0 -0 -0 -0 -0 -0 -0 -0 -0 -0 -0 -0 -0 -0 -0 -0 -0 -0
-0 -0 -0 -0 -0 -0 -0 -0 -0 -0 -0 -0 -0 -0 -0 -2 nan nan -0 -0 -0 -0 -0 -0 -0 -0 -0 -0 -0 -0 -0 -0 nan nan nan -0 -0 -0 nan -0 -0 -0 -0 -0 -0 -0 -0 -0 -0 -0 -0 -0 -0 -0 -0 -0 -0 -0 -0 -0 -0 -0 -0 -0 -0 -0 -0 -0 -0 -0 -0 -0 -0 -0 -0 -0 -0 -0 -0 -0 -0 -0 -0 -0 -0 -0
-0 -0 -0 -0 -0 -0 -0 -0 -0 -0 -0 -0 -0 -0 -0 nan nan nan -0 -0 -0 nan nan -0 -0 -0 -0 -0 -0 -0 -0 -0 -0 -0 -1 -0 -0 -0 -0 nan nan -0 -0 -0 -0 -0 -0 -0 -0 -0 -0 -0 -0 -0 -0 -0 -0 -0 -0 -0 -0 -0 -0 -0 -0 -0 -0 -0 -0 -0 -0 -0 -0 -0 -0 -0 -0 -0 -0 -0 -0 -0 -0 -0 -0 -0
-0 -0 -0 -0 -0 -0 -0 -0 -0 -0 -0 -0 -0 -0 -0 -3 -0 -0 -0 -0 -0 nan -0 -0 -0 -0 -0 -0 -0 -0 -0 -0 -0 -0 -0 -0 -0 -0 -0 -0 -0 -0 -0 -0 -0 -0 -0 -0 -0 -0 -0 -0 -0 -0 -0 -0 -0 -0 -0 -0 -0 -0 -0 -0 -0 -0 -0 -0 -0 -0 -0 -0 -0 -0 -0 -0 -0 -0 -0 -0 -0 -0 -0 -0 -0 -0
-0 -0 -0 -0 -0 -0 -0 -2 -0 -0 -0 -0 -0 -0 -0 -1 -2 -2 -1 -0 -0 -0 -0 -0 -0 -0 -0 nan -0 -0 -0 -0 -0 -0 -0 -0 nan nan -0 nan nan -0 -0 -0 -0 -0 -0 -0 -0 -0 -0 -0 -0 -0 -0 -0 -0 -0 -0 -0 -0 -0 -0 -0 -0 -0 -0 -0 -0 -0 -0 -0 -0 -0 -0 -0 -0 -0 -0 -0 -0 -0 -0 -0 -0 -0
-0 nan nan -0 -0 -0 -0 -0 -2 -2 -3 -3 -1 -1 -0 -0 -0 -0 -1 -2 -2 -0 nan nan nan nan -0 -0 -0 -0 -0 -0 -0 -0 -1 nan nan nan nan nan nan nan -1 -0 -0 -0 -0 -0 -0 -0 -0 -0 -0 -0 -0 -0 -0 -0 -0 -0 -0 -0 -0 -0 -0 -0 -0 -0 -0 -0 -0 -0 -0 -0 -0 -0 -0 -0 -0 -0 -0 -0 -0 -0 -0 -0
-0 -0 nan -0 -0 -0 -0 -0 -0 -0 -0 -3 -3 -3 -2 -1 -0 -0 -0 -2 -2 -2 nan nan nan -0 nan -0 -0 -0 -0 -0 -0 -0 -0 nan nan nan nan nan nan -0 -0 -0 -0 -0 -0 -0 -0 -0 -0 -0 -0 -0 -0 -0 -0 -0 -0 -0 -0 -0 -0 -0 -0 -0 -0 -0 -0 -0 -0 -0 -0 -0 -0 -0 -0 -0 -0 -0 -0 -0 -0 -0 -0 -0
-0 -0 -0 -0 -0 nan nan -0 -0 -0 -0 -0 -0 -0 -2 -2 -1 -1 -0 -1 -1 -2 -0 nan nan -0 nan nan -0 -0 -0 -0 -0 -0 -0 nan nan nan nan nan nan -0 -0 -0 -0 -0 -0 -0 -0 -0 -0 -0 -0 -0 -0 -0 -0 -0 -0 -0 -0 -0 -0 -0 -0 -0 -0 -0 -0 -0 -0 -0 -0 -0 -0 -0 -0 -0 -0 -0 -0 -0 -0 -0 -0 -0
-0 -0 -0 -0 -0 nan nan -0 -0 -0 -0 -0 -0 -0 -0 -2 -3 -3 -1 -0 -0 -1 -2 nan nan -0 -0 nan nan nan -0 -0 -0 -0 -0 nan nan nan nan nan nan nan -0 -0 -0 -0 -0 -0 -0 -0 -0 -0 -0 -0 -0 -0 -0 -0 -0 -0 -0 -0 -0 -0 -0 -0 -0 -0 -0 -0 -0 -0 -0 -0 -0 -0 -0 -0 -0 -0 -0 -0 -0 -0 -0 -0
-0 -0 -0 -0 -0 nan -0 -0 -0 -0 -0 -0 -0 -0 -0 -0 -2 -2 -3 -1 -1 -0 -0 nan nan nan nan -0 -0 -0 -0 nan -0 -0 -0 -3 nan nan -0 -0 -0 -0 -0 -0 -0 -0 -0 -0 -0 -0 -0 -0 -0 -0 -0 -0 -0 -0 -0 -0 -0 -0 -0 -0 -0 -0 -0 -0 -0 -0 -0 -0 -0 -0 -0 -0 -0 -0 -0 -0 -0 -0 -0 -0 -0 -0
-0 -0 -0 -0 -0 -0 -0 -0 -0 -0 -0 -0 -0 -0 -0 -1 -0 -0 -0 -1 -1 -1 -0 -0 -0 -0 -0 nan nan nan -5 -8 -11 -11 -9 -8 nan nan -0 -0 -0 -0 nan -0 -0 -0 -0 -0 -0 -0 -0 -0 -0 -0 -0 -0 -0 -0 -0 -0 -0 -0 -0 -0 -0 -0 nan -0 -0 -0 -0 -0 -0 -0 -0 -0 -0 -0 -0 -0 -0 -0 -0 -0 -0 -0
-0 -0 -0 -0 -0 -0 -0 -0 nan nan nan nan -0 -0 -0 -0 -0 -0 -0 -1 -1 -2 -1 -1 -1 -1 -5 -6 nan nan nan -13 -15 -15 -19 -9 -2 -2 -0 -0 -0 -0 -0 -1 -1 -1 -0 -0 -0 -0 -0 -0 -0 -0 -0 -0 -0 -0 -0 -0 -0 -0 -0 -0 -0 -0 nan nan -0 -0 -0 -0 -0 -0 -0 -0 -0 -0 -0 -0 -0 -0 -0 -0 -0 -0
-0 -0 -0 -0 -0 -0 -0 -0 nan nan nan nan -0 -0 -0 -0 -0 -0 -0 -1 -1 -1 -1 -1 -1 -1 nan nan -9 -9 -13 nan nan nan nan -9 -3 -3 -0 -0 -0 -0 -0 -0 -0 -1 -0 -0 -0 -0 -0 -0 -0 -0 -0 -0 -0 -0 -0 -0 -0 -0 -0 -0 -0 -0 -0 nan nan nan nan nan nan nan nan nan nan nan nan nan nan -0 -0 -0 -0 -0
-0 -0 -0 -0 -0 -0 -0 -0 -0 -0 nan nan -0 -0 -0 -0 -0 -0 -0 -0 -0 -0 -0 -0 -0 -0 -0 -0 -0 -0 -2 -9 -4 -4 nan nan -3 -3 -0 -0 -0 -0 -0 -0 -0 -0 -0 -0 -0 -0 -0 -0 -0 -0 -0 -0 -0 -0 -0 -0 -0 -0 -0 -0 -0 -0 nan nan nan nan nan nan nan nan nan nan nan nan nan nan nan nan -0 -0 -0 -0
-0 -0 -1 -2 -2 -0 -0 -0 -0 -0 nan nan nan nan -0 -0 -0 -0 -0 -0 -0 -0 -0 -0 -0 -0 -0 -0 -0 -0 -0 -3 -1 -1 nan nan -2 -2 -1 -0 -0 -0 -1 -0 -0 -0 -0 -0 -0 -0 -0 -0 -0 -0 -0 -0 -0 -0 -0 -0 -0 -0 -0 -0 -0 -0 -0 nan nan nan nan nan -0 -0 -0 -0 nan nan nan nan nan nan nan nan nan nan
-0 -0 -1 -1 -1 -2 -3 -1 -0 -0 nan nan nan nan -0 -0 -0 -0 -0 -0 -0 -0 -0 -0 -0 -0 -0 -0 -0 -0 -0 -0 -2 -2 -5 nan -4 -4 -1 -0 -0 -2 -2 -0 -0 -0 -0 -0 -0 -0 -0 -0 -0 -0 -0 -0 -0 -0 -0 -0 -0 -0 -0 -0 -0 -0 -0 nan nan nan -0 -0 nan nan -0 -0 nan nan -0 nan nan -0 -0 nan nan nan
-0 -0 -1 -0 -0 -0 -1 -3 -3 -3 nan nan -0 -0 -0 -0 -0 -0 -0 -0 -0 -0 -0 -0 -0 -0 -0 -0 -0 -0 -0 -0 -0 -0 -2 -5 -5 -5 -1 -1 -1 -4 -2 -0 -0 -0 -0 -0 -0 -0 -0 -0 -0 -0 -0 -0 -0 -0 -0 -0 -0 -0 -0 -0 -0 -0 -0 -0 -0 -0 -0 -0 nan nan -0 -0 -0 -0 -0 -0 -0 -0 -0 -0 -0 nan
-0 -0 -0 -1 -1 -1 -2 -5 -4 -4 nan nan -0 -0 -0 -0 -0 -0 -0 -0 -0 -0 -0 -0 -0 -0 -0 -0 -0 -0 -0 -0 -0 -0 -0 -0 -2 -2 -1 -1 -1 -2 -1 -0 -0 -0 -0 -0 -0 -0 -0 -0 -0 -0 -0 -0 -0 -0 -0 -0 -0 -0 -0 -0 -0 -0 -0 -0 -0 -0 -0 nan nan nan -0 -0 -0 -0 -0 -0 -0 -0 -0 -0 -0 -0
-0 -0 -0 -0 -0 -1 -1 -2 -2 -2 nan nan -0 -0 -0 -0 -0 -0 -0 -0 -0 -0 -0 -0 -0 -0 -0 -0 -0 -0 -0 -0 -0 -0 -0 -0 -0 -0 -0 -1 -1 -1 -2 -1 -1 -0 -0 -0 -0 -0 -0 -0 -0 -0 -0 -0 -0 -0 -0 -0 -0 -0 -0 -0 -0 -0 -0 -0 -0 -0 -0 -0 -0 -0 -0 -0 -0 -0 -0 -0 -0 -0 -0 -0 -0 -0
-0 -0 -0 -1 -1 -0 -0 -0 -1 -1 -0 -0 nan nan nan -0 -0 -0 -0 -0 -0 -0 -0 -0 -0 -0 -0 -0 -0 -0 -0 -0 -0 -0 -0 -0 -0 -0 -0 -0 -0 -1 -2 -1 -1 -2 -2 -0 -0 -0 -1 -0 -0 -0 -0 -0 -0 -0 -0 -0 -0 -0 -0 -0 -0 -0 -0 -0 -0 -0 -0 -0 -0 -0 -0 -0 -0 -0 -0 -0 -0 -0 -0 -0 -0 -0
-0 -0 -0 -0 -0 -0 -0 -0 -0 -0 -0 -0 nan nan nan -1 -0 -0 -0 -0 -0 -0 -0 -0 -0 -0 -0 -0 -0 -0 -0 -0 -0 -0 -0 -0 -0 -0 -0 -0 -0 -0 -0 -1 -1 -1 -1 -3 -3 -1 -1 -0 -0 -0 -0 -0 -0 -0 -0 -0 -0 -0 -0 -0 -0 -0 -0 -0 -0 -0 -0 -0 -0 -0 -0 -0 -0 -0 -0 -0 -0 -0 -0 -0 -0 -0
-0 -0 -0 -0 -0 -0 -0 -0 -0 -0 -0 -0 -0 -0 nan nan nan nan -0 -0 -0 -0 -0 -0 -0 -0 -0 -0 -0 -0 -0 -0 -0 -0 -0 -0 -0 -0 -0 -0 -0 -0 -0 -0 -0 -0 -0 -4 -4 -4 -1 -0 -0 -0 -0 -0 -0 -0 -0 -0 -0 -0 -0 -0 -0 -0 -0 -0 -1 -1 -1 -0 -0 -0 -0 -0 -0 -0 -0 -0 -0 -0 -0 -0 -0 -0
-0 -0 -0 -0 -0 -0 -0 -0 -0 -0 -0 -0 -0 -0 -1 -0 -0 -0 -0 -0 -0 -0 -0 -0 -0 -0 -0 -0 -0 -0 -0 -0 -0 -0 -0 -0 -0 -0 -0 -0 -0 -0 -0 -0 -0 -0 -0 -1 -1 -0 -1 -0 -0 -0 -0 -0 -0 -0 -0 -0 -0 -0 -0 -0 -0 -0 -0 -1 -5 -5 -3 -0 -0 -0 -0 -0 -0 -0 -0 -0 -0 -0 -0 -0 -0 -0
-0 -0 -0 -0 -0 -0 -0 -0 -0 -0 -0 -0 -0 -0 -0 -0 -0 -0 -0 nan nan -1 -0 -0 -0 -0 -0 -0 -0 -0 -0 -0 -0 -0 -0 -0 -0 -0 -0 -0 -0 -0 -0 -0 -0 -0 -0 -0 -0 -0 -0 -0 -0 -0 -0 -0 -0 -0 -0 -0 -0 -0 -0 -0 -0 -0 -0 -0 -4 -4 -4 -0 -0 -0 -0 -0 -0 -0 -0 -0 -0 -0 -0 -0 -0 -0
-0 -0 -0 -0 -0 -0 -0 -0 -0 -0 -0 -0 -0 -0 -0 nan -0 -0 nan -0 -0 -0 nan -0 -0 -0 -0 -0 -0 -0 -0 -0 -0 -0 -0 -0 -0 -0 -0 -0 -0 -0 -0 -0 -0 -0 -0 -0 -0 -0 -0 -0 -0 -0 -0 -0 -0 -0 -1 -1 -1 -0 -0 -0 -0 -0 -0 -0 -1 -1 -5 -3 -1 -1 -0 -0 -0 -0 -0 -0 -0 -0 -0 -0 -0 -0
Wind_Speed
10 9 9 11 12 11 10 11 11 11 10 9 8 8 8 9 10 11 13 14 14 13 13 13 13 14 15 18 20 21 22 23 23 24 24 24 24 24 24 25 25 26 26 26 27 28 28 29 30 30 31 31 31 31 31 30 30 30 30 30 29 29 28 28 27 27 27 27 27 26 26 26 25 25 25 25 25 25 25 25 25 24 24 24 24 24
10 10 9 11 12 12 10 11 11 11 11 10 9 9 9 10 9 9 10 12 13 13 12 13 14 15 16 17 19 21 22 23 23 23 24 24 24 24 24 25 25 26 26 26 27 27 28 29 30 30 31 31 31 31 31 30 30 30 30 29 29 29 29 28 28 27 27 27 27 27 26 26 26 26 26 26 26 26 26 25 25 24 24 24 24 24
10 10 9 10 11 11 10 10 10 11 12 11 10 10 11 12 11 9 8 9 10 11 11 11 12 14 15 16 17 20 21 22 23 23 24 24 24 24 24 24 25 25 26 26 26 27 27 28 29 30 31 31 31 31 31 30 30 30 29 29 29 29 29 28 28 28 28 27 27 27 27 26 26 26 26 26 26 26 26 25 25 25 24 25 25 25
11 10 9 8 9 10 10 10 9 9 9 9 10 10 12 11 10 9 9 9 9 10 10 11 12 13 13 13 15 17 20 21 22 23 23 24 24 24 24 24 25 25 26 26 26 26 27 27 28 29 30 31 31 31 31 30 30 30 30 29 29 29 29 29 28 28 28 28 27 27 27 26 26 26 27 27 27 26 26 25 25 25 25 25 25 24
11 10 9 8 8 9 10 9 9 8 8 8 8 9 10 9 9 9 9 10 10 10 10 11 12 12 11 11 13 15 19 20 21 22 23 23 24 24 24 24 25 25 25 26 26 26 27 27 28 29 29 30 31 31 31 30 30 30 30 30 29 29 29 29 29 28 28 27 27 27 26 26 26 26 26 26 26 26 26 25 25 25 25 25 24 23
10 10 9 8 7 7 7 7 7 7 7 7 7 8 8 8 8 8 9 9 10 10 9 9 10 11 11 11 12 15 18 19 20 21 22 23 24 24 24 24 25 25 25 26 26 26 27 27 28 28 29 29 30 30 30 30 30 30 30 30 30 30 30 29 29 29 28 27 27 27 26 26 26 26 26 26 25 25 25 25 25 24 24 23 22 21
10 9 8 8 7 6 6 6 6 6 6 6 6 6 7 7 7 8 9 9 9 9 9 9 10 10 11 12 13 14 16 17 19 20 21 22 23 24 24 25 25 25 26 26 27 27 27 27 27 28 28 29 29 30 30 30 30 30 30 30 30 30 30 30 30 29 28 27 27 26 26 26 26 26 26 25 25 24 24 24 24 23 23 22 21 20
10 9 8 8 7 6 6 6 6 6 6 5 5 5 6 6 7 8 9 10 10 9 9 9 10 10 10 11 11 12 12 13 14 15 17 19 20 22 23 24 25 25 26 27 27 27 28 28 28 28 28 28 29 29 30 30 30 30 31 31 31 30 30 30 30 29 28 27 27 26 26 26 26 26 26 25 24 24 23 23 23 23 22 21 21 20
11 10 9 8 7 7 6 6 6 6 6 6 5 6 6 6 6 7 8 9 9 9 9 9 9 9 9 9 10 10 10 10 10 11 12 13 14 16 19 21 22 24 25 26 27 28 28 28 28 28 28 28 28 29 29 30 30 31 31 31 31 30 30 30 29 29 28 27 27 27 27 26 26 26 26 25 24 24 24 23 23 23 22 22 21 20
11 11 9 8 7 7 6 6 6 6 6 6 6 6 6 7 7 7 8 8 8 8 8 9 9 9 9 8 8 9 9 10 11 12 13 14 14 15 17 18 18 20 24 25 26 27 28 29 29 29 28 28 28 28 29 30 30 31 31 31 31 30 30 29 29 28 27 27 27 27 27 27 27 26 26 25 25 24 24 24 23 23 22 22 21 21
10 10 9 8 7 6 6 6 5 5 6 5 5 6 6 7 7 8 9 9 8 8 8 8 8 8 8 7 7 7 8 8 10 11 13 15 17 18 18 18 19 20 22 23 25 26 27 28 29 29 29 28 28 28 28 29 30 30 31 31 30 29 29 28 28 27 27 26 26 27 27 27 27 27 26 26 25 25 24 24 24 23 23 22 22 21
9 8 7 7 6 6 6 6 5 5 5 5 5 6 7 7 7 8 9 9 9 9 9 8 7 7 7 6 6 6 7 7 7 8 9 11 12 14 14 15 16 18 19 20 22 24 26 27 28 28 28 28 27 27 27 27 28 29 30 30 29 28 27 27 26 26 26 26 26 26 27 27 27 27 27 26 26 25 25 25 24 24 24 23 22 22
8 7 7 7 7 7 6 6 6 5 6 6 7 7 8 7 7 7 8 9 9 9 9 8 7 7 7 6 6 5 6 7 7 7 7 8 8 8 9 9 10 11 12 13 14 16 21 24 25 26 27 26 26 26 26 26 27 28 28 28 28 27 26 26 25 25 25 26 26 26 27 27 27 27 27 27 26 26 25 25 25 24 24 24 23 22
8 8 7 8 8 7 7 7 7 7 8 8 8 8 8 7 7 7 7 8 9 8 8 8 8 7 6 6 6 6 6 6 7 7 7 7 7 7 7 7 8 8 8 9 10 11 14 16 18 20 23 24 24 24 23 24 25 26 27 27 26 26 25 25 25 25 25 25 26 27 27 28 28 27 27 27 26 26 25 25 25 25 24 24 23 23
9 8 8 9 9 8 8 8 8 9 9 8 8 8 7 7 7 7 8 8 8 7 7 7 7 7 6 6 6 6 6 6 6 7 8 7 7 7 7 7 7 7 7 8 8 9 11 12 12 13 16 19 20 20 19 20 22 24 25 25 26 25 25 25 25 25 25 25 26 27 27 28 28 27 27 27 26 26 26 25 25 25 25 24 24 23
9 8 9 10 9 9 9 8 8 9 9 8 8 7 7 8 8 8 8 8 7 6 6 6 7 7 6 6 6 6 7 7 7 7 7 7 7 6 7 7 7 7 7 7 8 8 9 9 10 11 12 16 18 19 20 19 20 22 23 24 24 25 25 25 25 25 25 25 26 26 27 27 28 27 27 27 26 26 26 25 25 25 24 24 23 23
9 9 9 10 10 9 9 8 8 8 7 7 7 7 8 8 7 7 7 7 6 5 5 5 6 5 4 5 6 7 7 7 6 6 7 7 6 6 6 7 7 7 7 7 7 7 7 8 8 9 10 14 17 20 21 21 21 22 22 23 23 24 24 25 25 25 25 25 26 26 27 27 27 27 27 27 26 26 26 25 25 24 24 24 23 23
9 9 9 9 9 9 8 8 7 7 7 6 7 7 7 7 7 7 7 7 6 6 6 6 5 5 4 4 4 5 7 7 6 6 6 7 6 6 6 6 7 7 7 8 7 7 7 7 8 8 9 14 17 19 21 22 23 23 23 23 23 24 24 24 25 25 25 25 26 26 27 27 27 27 27 27 26 26 25 25 25 24 23 23 23 22
9 9 9 9 8 8 7 7 7 7 6 6 6 7 7 7 7 7 7 7 7 7 7 7 6 6 6 5 4 4 5 6 6 6 6 6 6 6 6 6 7 7 8 8 8 7 7 7 9 11 13 16 18 20 21 23 24 25 25 25 25 25 25 25 25 26 26 26 26 26 26 27 27 27 27 27 26 26 25 25 24 24 23 22 22 22
10 9 8 8 8 8 8 8 7 6 6 7 6 6 7 7 7 7 7 7 7 8 7 7 7 7 6 7 6 5 4 5 5 6 6 6 6 6 6 6 7 7 8 7 7 7 7 7 9 11 15 17 19 20 22 23 25 26 26 27 27 27 27 27 27 27 27 27 27 27 27 27 27 28 27 27 27 26 25 25 24 23 22 22 22 22
9 10 9 7 6 6 7 7 7 7 8 7 7 7 7 7 7 8 8 8 8 8 8 8 8 8 6 6 6 5 5 5 5 5 4 5 5 5 5 6 7 7 8 7 7 7 7 8 8 9 12 16 19 21 22 23 25 26 27 27 28 28 28 28 28 28 28 28 28 28 28 28 28 28 28 27 27 26 25 24 24 23 22 22 22 22
8 9 9 8 7 7 7 6 7 8 8 8 7 7 7 7 7 8 8 8 8 8 9 8 8 8 7 7 6 6 5 6 6 5 4 4 5 5 5 5 6 7 8 7 7 7 7 7 8 9 11 16 19 21 22 23 25 26 27 28 28 29 29 29 29 30 30 30 30 29 29 29 29 29 28 28 27 26 25 24 23 23 22 22 22 22
9 8 8 8 8 8 7 7 7 7 8 8 8 8 7 7 8 8 8 8 8 8 8 8 7 7 7 7 6 6 6 6 6 5 4 5 5 5 4 5 6 7 7 7 6 6 7 7 8 9 12 17 19 21 22 23 25 26 27 28 28 29 29 30 30 30 31 31 31 30 30 30 30 29 29 28 26 25 24 23 23 23 23 23 23 22
10 9 8 7 7 7 7 7 6 6 7 7 8 8 7 8 8 8 7 7 7 6 6 6 6 7 7 7 7 6 6 6 6 5 5 5 5 5 4 5 6 7 7 6 6 6 7 7 8 8 9 15 18 21 22 23 24 25 26 27 28 29 29 29 30 31 31 31 31 31 31 30 30 29 28 27 26 25 24 23 23 23 23 23 23 22
10 9 7 7 8 8 9 9 9 9 8 8 8 8 8 8 8 8 7 7 6 5 5 6 6 7 6 7 6 6 6 6 6 5 5 5 5 5 4 5 5 6 6 6 6 6 6 7 7 8 8 12 16 20 22 23 24 25 26 27 27 28 29 29 30 30 31 31 31 31 30 30 29 28 27 26 25 24 23 23 23 23 23 23 22 22
14 13 11 11 12 14 15 15 15 15 14 11 9 8 8 8 7 7 7 7 6 6 6 7 7 7 6 6 6 6 5 6 6 6 5 4 5 5 5 5 5 6 6 5 5 6 6 7 7 7 8 9 13 17 20 22 23 24 25 26 26 27 28 28 29 30 30 30 30 30 30 29 28 27 25 24 24 23 23 23 23 23 23 23 22 22
24 23 22 21 20 19 20 20 21 22 22 19 16 12 10 8 7 7 8 8 7 7 7 7 8 8 7 6 6 6 5 5 6 6 6 5 5 5 5 5 5 5 6 5 5 6 7 7 7 7 7 8 9 12 17 20 21 23 24 24 25 26 26 27 27 28 28 28 28 28 28 27 26 25 24 23 23 23 23 23 23 23 23 21 19 18
27 27 27 26 25 24 22 22 23 24 25 24 23 20 14 10 8 9 9 8 8 8 8 8 8 8 7 7 6 5 5 5 6 6 6 5 4 5 5 5 5 5 5 4 5 6 7 7 7 7 7 7 8 9 13 16 19 21 22 23 24 24 25 25 25 26 26 26 26 26 26 25 24 23 23 23 23 23 23 23 23 22 21 18 15 12
24 25 26 26 26 25 25 23 23 23 25 26 26 24 18 11 9 10 10 8 8 8 8 8 8 8 7 6 6 5 6 6 6 6 6 5 5 5 5 4 4 4 4 4 4 5 6 6 7 7 7 8 8 8 9 12 14 16 18 21 22 23 23 23 24 24 24 24 24 24 24 23 23 23 23 23 23 23 23 24 23 21 17 15 12 11
17 19 20 21 21 21 21 19 19 20 22 24 25 24 19 12 10 9 9 8 8 8 8 8 8 8 7 6 5 5 5 6 6 7 7 6 5 5 4 5 5 4 4 3 3 3 4 5 6 7 7 8 8 7 7 8 9 10 11 15 18 19 21 22 23 23 23 23 23 23 23 23 23 23 23 23 24 24 24 24 22 18 13 11 11 10
12 13 13 14 14 14 13 13 13 14 16 19 20 19 16 11 9 8 8 8 8 8 8 8 8 7 7 6 5 5 4 5 6 8 7 6 5 5 5 5 5 5 4 3 3 3 3 3 4 5 7 7 7 7 7 6 7 7 7 9 11 13 18 20 21 22 22 22 23 23 23 23 23 23 24 24 24 24 24 24 21 17 11 10 10 10
11 10 10 10 9 9 9 9 9 9 10 11 12 12 12 10 9 8 8 8 8 8 8 8 8 8 8 7 6 6 4 4 6 8 8 6 5 5 5 5 5 5 5 5 4 4 3 2 2 3 5 6 6 6 6 6 6 6 6 7 7 9 14 17 18 19 19 21 22 23 23 24 24 24 24 24 24 24 24 24 22 17 12 11 11 10
10 9 8 8 8 7 7 7 8 8 8 8 8 8 8 9 9 8 8 8 8 8 8 8 8 8 8 8 8 7 6 5 6 8 10 6 5 4 5 5 5 5 5 5 5 5 4 3 2 2 3 4 5 5 6 6 6 6 6 6 6 7 10 12 13 14 14 16 18 20 22 23 24 24 24 24 24 24 24 25 23 20 15 12 11 10
10 10 9 8 8 7 7 8 8 8 8 8 8 8 7 8 8 8 8 7 8 8 9 9 9 9 8 8 8 8 7 6 7 8 10 7 5 4 5 5 6 5 5 5 5 5 4 4 4 3 2 3 3 4 5 5 6 6 6 6 6 6 6 8 8 9 10 11 12 13 16 17 19 21 22 23 23 23 24 24 24 23 21 15 12 10
9 9 9 8 8 8 8 8 8 8 8 8 8 8 8 8 8 7 7 7 7 8 8 9 9 9 9 8 8 8 7 7 8 9 10 8 6 5 5 6 6 6 5 5 5 4 4 5 5 5 3 2 3 3 4 5 5 6 6 6 6 6 6 6 7 7 8 9 9 9 10 11 12 14 17 19 20 22 23 24 25 25 25 21 17 13
8 8 8 8 8 7 8 8 8 8 8 8 8 8 8 8 8 8 7 7 8 8 9 9 9 9 9 9 9 8 7 7 7 9 10 9 7 6 5 6 6 6 6 6 5 5 4 5 6 6 5 4 3 3 4 4 5 5 5 6 6 6 6 6 6 7 7 7 8 8 8 8 9 10 11 15 18 20 21 23 24 25 25 25 23 19
7 7 8 7 7 7 8 8 8 8 8 8 8 8 8 8 8 8 8 8 8 8 9 10 10 10 11 10 9 8 7 6 6 7 9 8 7 7 6 6 6 7 7 7 6 6 5 5 5 6 6 5 4 3 3 4 5 5 6 6 6 6 6 6 7 7 7 7 8 8 8 8 8 8 9 13 15 17 19 21 22 23 24 25 24 24
6 7 7 7 7 7 8 8 8 8 7 7 7 8 8 8 9 9 8 8 9 8 8 8 9 10 13 12 10 8 7 6 6 6 7 8 8 7 7 6 7 7 7 7 7 6 6 6 6 6 5 5 5 5 4 4 5 5 6 6 6 6 6 6 7 7 7 7 8 8 8 8 8 7 8 9 10 10 12 13 15 17 20 21 22 24
7 7 8 8 8 8 8 8 8 7 7 7 7 7 7 8 9 9 8 8 8 8 8 8 7 8 10 11 12 11 9 8 7 7 7 8 8 8 8 7 7 7 7 7 7 7 7 6 6 6 5 5 5 5 5 5 5 5 5 5 5 6 6 7 7 7 7 7 7 8 8 7 7 7 7 7 8 8 8 9 10 12 13 13 15 18
7 8 8 8 8 8 8 8 8 7 7 7 7 7 7 7 7 7 7 7 7 7 8 8 7 7 8 9 11 11 11 9 8 8 7 8 8 8 8 8 8 7 7 7 7 7 8 7 7 7 6 5 5 5 5 5 5 6 6 5 5 5 7 7 7 7 7 7 7 7 7 7 7 8 8 8 8 8 8 8 8 9 10 10 10 10
8 8 7 7 7 7 8 8 7 7 6 6 6 6 7 6 6 6 6 6 7 7 7 7 6 6 6 8 9 10 12 11 10 10 9 9 9 9 8 8 8 7 7 7 7 8 8 8 8 7 7 6 6 6 6 6 7 7 8 6 5 5 6 7 7 7 7 7 7 7 8 8 8 8 8 9 9 9 9 8 9 9 9 9 9 9
9 8 7 6 6 6 6 7 7 7 6 6 6 7 7 7 6 6 6 6 6 6 6 6 6 6 6 7 8 9 10 11 11 12 11 11 11 11 10 9 8 7 7 7 7 8 8 8 8 8 7 7 6 6 6 7 7 8 8 7 6 6 6 7 8 8 7 8 8 8 9 8 8 8 9 9 9 9 9 10 10 10 10 9 9 9
8 7 7 6 6 6 6 6 6 6 6 6 6 7 7 7 7 7 7 7 7 7 7 6 6 7 7 7 7 8 9 10 12 13 12 12 13 13 12 11 10 8 7 7 7 8 8 9 8 8 8 7 7 7 7 7 7 7 8 8 7 6 4 5 7 8 8 8 8 8 9 8 8 8 8 9 9 9 9 10 12 12 11 10 9 10
8 7 7 6 6 5 5 5 5 5 6 6 7 7 7 7 7 7 7 6 7 7 7 6 6 6 7 7 7 7 7 9 11 13 13 14 14 14 14 13 12 10 9 8 7 7 7 8 8 8 8 7 7 7 7 7 7 7 7 8 8 7 6 5 6 7 8 8 8 9 9 9 8 8 8 8 8 9 9 9 10 11 11 11 10 10
8 7 7 6 6 6 6 6 6 6 6 7 7 7 6 7 7 7 7 7 7 7 6 6 5 5 6 7 7 6 6 7 8 10 11 14 16 17 15 14 12 11 11 10 9 8 7 7 8 8 8 7 8 8 8 7 7 7 7 8 8 8 7 6 6 7 8 8 8 9 9 9 8 8 8 8 9 9 9 9 10 10 10 11 11 11
7 7 7 7 7 7 8 8 7 7 7 7 7 7 6 7 7 7 7 7 7 7 7 6 6 6 6 6 6 6 6 6 7 7 8 10 12 14 14 13 12 11 10 10 10 9 8 8 7 7 7 8 8 8 9 8 8 7 7 8 8 7 7 7 7 7 7 8 8 9 9 9 9 8 8 9 9 9 9 10 10 10 11 11 11 11
7 7 7 7 7 7 8 8 7 7 7 7 7 7 7 7 7 7 7 7 7 7 7 7 7 7 7 7 7 6 6 7 7 7 7 8 9 10 11 11 11 12 11 10 10 10 10 9 9 8 8 8 8 8 8 8 8 8 7 7 7 7 7 7 7 8 7 7 8 8 9 9 9 9 9 8 8 9 9 9 10 11 11 11 11 11
7 7 7 7 7 7 7 7 7 7 7 7 7 7 7 7 8 8 7 8 7 7 7 7 7 7 8 7 7 7 7 7 7 7 7 7 7 8 8 8 9 10 10 11 11 12 12 11 11 10 9 9 8 8 8 8 8 8 8 8 7 7 8 7 7 7 8 8 8 8 9 8 8 8 9 8 8 8 8 9 10 10 10 10 11 11
7 7 7 7 7 7 7 7 7 7 7 7 7 7 7 8 9 10 8 8 7 7 7 7 8 8 8 7 7 8 8 7 7 6 6 6 6 6 7 7 7 7 7 8 9 10 11 11 12 12 11 10 9 9 8 8 8 8 8 8 8 7 7 7 7 7 7 8 9 9 9 8 8 8 8 8 9 9 9 9 10 10 10 10 11 11
7 7 7 7 7 7 7 7 7 7 7 7 7 7 6 7 8 8 8 7 7 7 7 8 8 8 8 8 8 8 8 7 7 6 6 6 6 6 6 6 6 6 6 6 6 6 7 7 9 11 13 12 11 10 9 9 8 8 7 7 7 7 7 7 7 7 7 8 8 9 9 9 8 8 8 9 10 10 10 10 10 10 10 10 11 11
8 7 7 7 7 7 7 7 7 7 7 7 6 6 6 6 7 7 7 7 7 7 7 7 8 8 8 8 8 8 8 7 7 7 6 5 5 6 6 6 6 6 5 5 5 5 5 5 5 7 11 14 16 14 10 9 8 8 7 7 7 7 7 7 7 7 8 8 8 8 9 9 9 9 8 9 9 10 10 10 10 10 10 10 11 11
Wind_Direction
272 272 270 267 267 266 262 255 255 257 259 255 251 248 246 243 244 246 247 247 248 250 252 253 254 255 254 251 249 248 248 248 248 248 248 249 249 250 251 252 252 252 251 250 248 246 245 243 241 240 240 239 238 237 236 235 234 234 234 235 235 234 234 233 232 231 231 231 231 231 231 231 232 232 233 234 234 234 234 234 234 234 234 235 235 235
270 271 268 265 266 266 266 258 254 254 257 256 253 251 251 249 248 247 246 247 248 250 252 255 256 257 257 255 252 250 250 250 249 249 249 248 248 249 250 251 252 252 251 250 249 248 246 244 243 241 240 239 238 237 236 235 235 235 235 235 235 235 234 233 232 231 230 230 230 230 230 231 231 232 233 234 234 234 234 233 233 233 234 234 235 236
271 271 268 267 266 266 266 262 258 255 256 257 255 253 253 254 253 251 249 249 248 249 250 253 256 258 258 258 256 253 252 251 251 250 250 249 248 248 248 250 251 251 251 251 250 249 248 246 245 243 241 240 238 237 236 235 235 235 235 236 236 236 235 235 233 232 231 230 229 229 229 230 231 233 234 235 235 235 234 233 233 233 233 234 235 236
269 270 269 269 266 264 264 265 262 259 256 257 255 253 252 254 255 255 253 253 252 251 251 252 255 257 259 258 257 255 254 253 252 251 251 250 249 248 248 249 250 251 252 251 251 250 249 248 246 245 243 241 239 238 236 236 235 235 235 235 236 236 236 235 234 233 231 230 229 229 229 230 231 233 234 235 235 235 234 234 233 233 233 234 235 236
263 265 268 267 265 263 262 262 262 260 257 255 254 252 250 252 254 256 256 255 255 254 253 253 254 255 257 257 256 255 254 253 252 252 251 251 250 249 249 249 249 250 251 251 251 250 250 249 248 246 245 243 241 239 237 236 235 235 235 235 235 235 236 235 234 233 231 230 229 229 230 231 232 233 234 235 235 235 235 234 234 234 234 235 236 237
261 262 265 264 262 262 262 260 258 257 256 253 251 249 249 250 252 254 255 254 255 255 255 254 254 254 255 255 255 255 254 253 253 252 252 252 252 251 250 249 249 250 251 251 251 251 250 249 248 247 246 244 242 240 238 237 235 235 234 234 234 234 234 234 233 232 231 230 229 229 230 231 232 233 234 235 235 236 236 236 236 236 236 237 237 238
261 261 262 262 261 261 260 256 253 250 250 250 248 246 245 246 247 248 250 252 253 255 256 256 255 254 254 254 254 254 254 254 253 253 253 253 253 252 252 251 250 250 250 251 251 251 250 250 249 248 247 245 243 241 239 237 236 235 234 234 234 233 233 233 232 231 230 229 229 229 230 231 232 233 234 234 235 236 236 237 237 238 239 239 240 239
263 262 260 260 261 259 256 252 249 246 244 245 245 244 242 242 242 243 245 247 250 252 255 257 256 255 254 254 254 253 252 253 252 252 253 253 253 253 252 251 251 250 250 250 250 251 250 250 249 248 247 246 244 242 240 238 236 235 234 234 233 232 232 231 231 230 229 228 229 229 230 231 232 233 233 234 234 235 236 237 238 239 240 241 241 242
261 263 261 258 258 258 257 252 247 242 239 238 238 240 242 243 244 243 243 244 244 246 249 253 255 255 254 254 253 252 251 251 250 250 251 252 252 253 253 252 252 251 250 250 250 250 250 249 249 248 247 246 245 243 241 238 237 235 234 233 232 231 231 230 229 229 228 228 229 229 230 231 232 232 233 233 234 234 235 236 237 238 239 241 242 243
255 257 259 256 254 253 254 254 249 241 234 234 235 237 240 244 247 249 248 246 244 242 243 246 250 253 254 252 251 251 251 251 250 250 251 251 252 253 254 254 253 252 251 250 250 250 249 249 248 248 247 247 246 244 242 239 237 235 234 233 232 230 229 228 228 228 228 228 229 229 230 231 231 232 232 232 233 233 234 235 236 237 238 240 241 242
250 251 253 253 250 247 246 249 248 241 230 231 234 236 236 238 243 249 253 253 251 247 244 243 245 248 251 251 249 248 248 250 250 250 250 251 252 253 254 254 254 253 252 251 251 250 249 249 248 247 247 247 246 245 243 241 238 236 234 232 231 229 228 227 227 227 227 228 229 230 230 231 231 231 231 231 231 232 233 234 235 236 237 238 239 240
247 247 246 246 245 244 241 240 238 232 224 225 230 233 233 231 235 241 249 254 255 254 252 250 247 245 246 249 250 248 247 248 249 250 250 250 250 251 252 252 252 252 252 251 251 250 249 249 248 247 246 246 246 246 245 242 239 236 233 231 230 228 226 226 226 226 227 228 229 230 231 231 231 231 231 230 230 230 230 231 233 234 235 236 237 238
244 243 243 242 241 239 237 234 230 225 221 221 225 229 232 230 230 234 242 248 252 254 257 258 255 251 246 245 246 247 248 249 249 249 249 248 246 245 247 248 248 249 249 249 249 248 248 247 247 246 246 246 246 247 247 245 241 237 234 231 228 227 226 225 225 226 227 228 229 230 231 232 232 231 231 230 229 228 228 229 230 231 233 234 234 235
242 241 240 240 238 236 233 231 229 227 225 224 226 229 233 232 230 230 235 242 246 250 254 257 258 256 251 245 242 243 245 248 249 249 247 245 242 241 242 244 244 244 244 246 246 245 244 244 244 245 244 244 246 247 249 247 244 240 235 231 228 226 225 225 226 226 227 228 230 231 232 232 232 232 231 229 228 227 226 227 228 229 230 231 231 232
238 237 238 238 237 235 231 230 230 230 230 228 229 231 235 234 231 229 232 238 242 245 247 252 255 255 253 246 240 237 237 241 244 245 246 245 242 238 238 242 243 243 242 244 245 245 244 242 242 242 242 241 242 244 247 249 246 242 238 233 229 227 226 226 226 227 228 229 230 232 233 233 233 232 230 229 227 226 225 225 226 227 228 229 229 230
235 234 235 237 238 237 234 231 230 232 233 230 229 229 230 230 229 229 231 236 239 240 241 246 251 253 251 243 234 229 228 232 237 241 246 246 242 236 234 239 241 242 240 242 244 244 243 243 243 242 242 241 241 242 244 247 248 246 242 238 233 230 228 228 228 229 229 230 231 232 233 233 233 232 230 229 227 226 225 225 225 226 227 227 228 228
235 234 235 237 238 238 236 233 232 231 230 228 226 226 226 227 228 228 230 232 235 236 235 238 244 250 254 243 229 220 217 223 230 238 243 246 242 235 228 233 237 240 240 240 241 242 241 242 243 243 244 242 242 242 242 244 245 245 244 241 238 235 232 231 231 231 231 231 232 233 233 233 233 232 230 229 227 226 225 225 225 225 225 226 227 227
234 233 235 237 238 238 236 233 231 229 225 224 224 226 228 228 228 229 230 230 231 233 235 235 237 242 251 250 233 213 205 213 222 232 238 243 241 235 226 228 233 238 240 240 239 239 239 239 240 242 245 243 243 242 242 243 244 244 243 241 239 237 236 235 234 233 233 232 232 233 233 233 232 231 229 228 227 226 225 225 224 224 224 224 225 227
235 233 234 236 238 238 236 232 229 227 224 222 222 225 228 228 227 227 228 229 230 232 234 236 238 240 243 248 242 220 197 204 214 226 234 239 239 233 224 225 229 235 238 239 238 237 237 238 238 240 241 241 242 242 242 243 243 243 243 242 241 239 238 236 236 235 234 233 232 232 233 232 231 230 228 227 226 225 225 224 224 223 223 224 225 226
240 237 233 234 237 238 238 234 230 226 223 223 223 224 226 225 225 225 226 228 230 232 233 236 239 241 242 247 246 235 203 198 206 220 232 237 237 232 221 222 226 232 236 237 236 235 236 236 237 238 238 238 238 239 240 241 242 243 243 243 242 241 239 238 237 236 235 234 233 232 232 231 231 229 227 226 225 225 224 223 223 222 222 223 225 227
245 243 236 232 232 235 237 232 228 225 224 222 222 223 224 224 224 225 225 226 229 231 232 234 237 239 241 244 244 235 209 196 202 215 229 236 235 230 220 220 225 231 235 236 234 233 234 235 236 236 235 236 236 236 237 238 239 240 241 242 241 241 240 239 238 236 235 234 232 231 230 230 230 229 227 226 225 224 223 222 221 221 222 223 225 227
251 248 243 236 233 233 236 232 228 224 221 218 218 221 223 223 224 226 225 225 226 228 229 232 236 239 242 243 242 234 214 201 203 212 225 236 236 231 218 218 224 231 236 235 233 232 233 235 236 237 236 236 236 235 235 236 236 237 238 239 239 239 238 238 237 235 234 233 231 230 229 229 229 228 227 225 224 223 221 221 220 221 221 223 225 228
258 255 250 240 234 232 233 229 225 221 217 216 218 220 221 221 224 227 226 226 227 230 232 235 239 241 242 242 240 234 220 207 206 212 225 237 238 232 217 216 223 230 235 234 233 231 231 234 236 238 239 237 237 236 236 236 236 236 236 236 236 236 235 235 234 233 232 231 229 228 227 227 227 227 226 224 223 221 220 220 220 221 222 224 226 228
259 256 250 240 232 228 227 224 220 216 214 217 219 222 223 225 228 231 232 233 234 236 237 239 241 241 240 238 236 232 223 210 204 208 222 236 240 237 223 218 224 231 235 232 231 230 232 234 235 236 239 238 238 237 237 237 236 236 236 235 234 234 233 233 232 231 230 229 227 226 225 226 226 225 224 223 221 220 219 219 220 221 223 225 227 229
253 251 245 233 225 221 220 218 216 214 212 215 219 222 223 227 231 236 239 239 238 238 237 237 237 237 235 232 231 229 222 209 203 204 218 234 242 242 233 224 226 232 236 232 228 228 231 234 234 235 237 238 238 237 237 237 237 237 236 235 234 233 232 231 231 229 228 227 225 225 224 225 224 224 222 221 219 219 218 219 221 223 225 227 229 231
250 248 243 236 229 224 221 220 219 217 214 214 215 217 219 222 226 231 233 232 229 227 228 231 233 234 233 230 229 226 219 207 203 205 215 231 242 243 237 228 229 233 239 234 228 226 230 233 234 233 233 236 236 236 237 237 237 237 237 236 235 233 232 231 230 229 227 226 224 224 223 223 223 222 220 219 219 219 219 221 223 225 227 229 231 233
252 252 251 247 242 235 228 225 223 221 219 218 216 215 214 214 218 222 224 222 220 219 222 227 232 235 235 232 230 226 217 207 203 204 210 225 238 243 239 232 232 235 240 237 230 226 228 232 233 232 232 233 234 235 235 236 237 237 237 236 235 234 233 232 230 229 227 225 224 223 222 222 222 221 220 219 219 220 221 223 225 226 228 230 232 234
253 254 254 253 251 246 240 233 228 225 224 222 220 218 214 211 214 219 222 219 216 216 220 225 230 234 235 234 233 229 220 212 204 200 199 214 231 240 238 235 234 236 240 241 236 231 230 232 233 233 232 231 231 232 233 234 235 236 236 236 235 234 233 232 230 229 227 225 223 222 222 221 221 220 220 220 221 222 223 224 226 227 229 230 231 234
252 253 254 254 254 252 250 244 238 233 229 227 225 222 216 211 213 218 222 218 215 216 220 223 227 231 235 237 238 234 226 217 205 195 189 206 224 235 234 234 234 234 236 244 243 237 232 231 231 231 232 230 229 228 230 231 233 235 235 235 234 233 232 230 229 228 226 225 223 222 222 221 221 221 222 222 223 224 224 225 226 227 228 229 231 233
248 249 250 251 251 251 251 250 246 242 237 235 232 228 221 216 214 218 221 217 215 215 219 223 225 228 231 235 238 236 231 219 203 190 184 200 218 229 227 229 229 229 228 239 245 244 236 230 227 226 228 228 226 224 223 224 226 229 232 232 232 231 230 228 227 226 225 224 223 223 222 222 222 223 223 224 224 225 225 225 225 225 226 227 229 231
244 244 244 245 244 244 244 245 246 246 245 242 239 234 227 221 216 215 216 215 215 215 218 221 222 223 223 226 230 233 232 217 199 187 182 199 215 223 219 224 225 224 220 226 238 249 249 234 222 219 221 224 224 221 218 216 217 220 222 225 227 227 226 225 225 224 224 223 223 223 223 223 223 223 224 224 224 225 225 225 224 224 225 226 228 230
243 242 242 241 238 236 234 234 236 239 241 242 240 237 232 226 218 211 209 211 213 215 218 220 221 221 220 222 226 231 234 220 197 186 182 197 212 219 213 219 221 222 218 222 231 245 259 254 232 215 215 219 220 219 215 212 211 212 215 216 219 222 222 221 222 222 223 223 223 223 223 223 223 223 224 224 225 225 225 226 225 224 224 226 228 230
243 241 240 239 236 232 228 226 227 228 229 231 232 232 232 228 221 213 206 208 210 214 216 219 221 222 222 225 228 232 236 229 204 189 184 192 205 214 210 213 216 219 218 221 228 238 251 258 256 238 218 217 217 216 214 210 208 208 208 211 214 216 218 217 218 219 220 221 222 223 223 224 224 224 225 225 226 227 227 227 227 226 225 226 227 229
241 240 238 237 234 231 227 225 224 224 224 224 224 224 225 226 223 218 209 207 208 211 215 217 220 222 223 226 229 232 233 230 214 197 186 192 201 210 208 208 211 213 216 219 223 229 241 247 251 250 235 220 215 214 214 211 209 206 205 207 209 211 212 213 215 216 217 218 220 221 222 224 225 225 226 227 228 228 229 229 229 229 229 228 228 228
240 237 236 234 232 230 228 226 224 223 223 222 222 222 221 222 222 219 213 207 206 209 214 217 219 222 223 225 228 231 229 226 216 204 191 194 199 206 207 208 207 208 212 216 219 222 232 236 238 240 241 229 218 213 212 212 210 207 205 206 206 206 207 208 211 213 215 216 217 219 220 222 223 225 227 228 229 230 231 231 231 231 231 231 230 229
241 238 235 233 230 229 228 227 226 224 223 222 220 219 218 218 218 218 215 210 207 208 211 216 220 222 224 226 228 230 229 225 216 208 199 197 199 203 209 209 207 205 208 213 216 219 226 230 233 234 236 234 226 216 208 207 208 208 208 207 207 207 206 206 208 211 213 214 215 216 216 218 219 222 225 228 230 231 233 233 234 234 234 234 233 233
240 240 237 233 230 228 228 227 226 224 223 221 219 217 214 214 215 217 217 214 211 209 210 214 219 222 225 227 230 232 232 227 219 212 205 202 202 205 212 213 209 206 206 210 214 217 221 225 228 229 231 232 229 221 206 200 201 205 209 208 208 207 206 204 205 207 211 211 212 212 213 214 216 218 221 227 230 232 234 235 236 236 237 237 237 236
238 239 238 234 231 227 227 226 225 223 222 220 218 215 212 212 213 216 217 216 214 212 212 213 216 221 224 227 229 231 231 227 223 218 211 207 207 209 214 217 215 212 210 212 213 214 216 221 223 224 227 228 228 225 215 201 199 202 205 206 206 207 207 205 204 204 208 210 211 211 211 212 214 216 218 221 224 227 231 234 235 237 238 239 239 239
239 240 241 238 235 231 228 227 226 223 221 220 217 213 210 211 212 214 216 217 216 215 214 214 215 218 220 224 226 227 227 224 221 218 215 212 212 214 216 220 220 218 215 215 215 215 215 217 219 220 222 225 226 224 219 209 203 200 199 201 204 207 208 207 205 204 205 208 210 211 212 212 213 215 216 217 219 221 224 227 229 231 234 236 238 240
245 245 244 241 239 236 234 233 230 226 220 217 214 211 208 208 210 212 215 216 218 218 218 217 217 217 216 219 222 223 222 219 216 214 214 214 215 217 219 221 222 221 217 216 216 217 217 219 220 222 222 222 221 219 216 212 205 198 193 195 199 204 205 205 205 204 204 207 209 210 211 212 214 215 216 217 217 218 220 221 223 224 225 227 230 234
255 254 251 246 243 240 239 238 233 226 216 210 207 206 206 205 206 207 209 212 214 216 217 217 217 216 213 215 217 219 219 217 215 213 211 212 214 218 222 223 224 224 221 219 218 218 218 219 221 222 222 221 220 219 218 215 208 202 197 198 199 200 199 201 202 203 204 207 209 210 211 214 216 217 219 219 219 220 220 221 222 222 221 222 223 224
260 259 256 253 248 243 239 237 232 224 212 205 204 205 205 203 202 202 202 206 209 210 210 211 213 214 214 214 215 215 215 215 214 212 210 209 211 215 220 223 225 225 223 222 221 220 219 219 220 220 219 218 219 220 219 216 211 207 203 203 202 200 199 199 199 200 201 204 207 210 212 214 216 217 219 221 222 222 222 223 223 223 222 221 222 223
263 261 259 257 253 248 243 237 228 219 209 206 207 207 205 203 202 202 203 205 207 207 207 208 211 214 217 216 214 212 212 213 214 214 212 210 210 212 217 221 223 223 222 223 223 222 220 220 220 220 219 218 219 220 220 217 214 211 208 205 202 201 202 198 196 196 199 202 205 208 211 213 215 217 220 222 223 224 224 225 225 225 224 224 224 225
269 266 264 261 258 253 246 237 225 216 210 210 211 210 206 202 201 203 205 207 208 207 205 206 210 215 220 221 218 214 211 211 213 214 215 212 211 211 215 219 221 221 220 222 223 223 221 220 220 219 218 218 220 221 222 220 216 214 211 207 206 207 208 200 195 194 197 201 204 207 210 212 214 218 221 223 224 224 224 224 225 225 225 226 227 228
270 268 265 261 257 252 246 239 231 221 214 213 213 211 206 202 201 202 205 208 209 208 206 202 204 212 219 221 220 217 213 208 208 211 214 214 213 213 214 217 219 220 221 222 223 223 221 221 220 219 217 217 219 221 222 221 220 218 215 211 211 213 215 211 203 199 198 200 203 205 207 208 211 216 220 222 223 223 223 223 224 225 226 226 227 229
266 264 260 257 253 249 246 241 235 228 221 217 214 210 205 201 200 202 205 207 209 209 208 203 204 209 217 218 218 217 215 211 207 205 207 211 212 212 213 215 217 219 221 223 224 225 225 224 223 220 217 218 219 220 220 220 220 220 219 215 214 215 217 215 212 208 205 204 204 205 204 204 207 213 218 220 222 223 223 223 224 225 226 226 227 229
264 261 259 256 252 250 248 243 238 231 225 221 217 211 204 200 200 202 206 207 208 209 209 207 208 212 218 218 217 217 216 215 211 206 203 205 207 209 211 214 217 219 221 223 224 225 227 227 226 223 221 220 220 219 218 217 218 220 221 219 217 217 217 216 215 213 211 211 210 208 204 204 207 213 218 220 222 224 225 225 226 227 227 228 229 230
265 264 262 260 257 254 252 247 241 234 229 225 220 214 207 201 200 202 205 206 208 209 210 210 212 215 219 220 219 218 218 218 215 210 205 203 204 205 208 212 216 219 222 224 226 226 227 227 226 224 223 223 222 221 218 217 217 218 220 219 219 220 220 219 218 216 215 216 216 214 210 209 211 215 219 222 224 226 227 227 227 227 228 229 230 232
266 265 264 263 260 257 255 251 245 239 233 227 222 217 210 204 202 202 204 204 206 208 211 212 213 215 218 219 220 220 220 221 219 215 209 203 201 201 203 206 211 216 221 224 226 226 227 226 224 223 221 222 224 226 225 221 219 218 218 218 219 221 222 223 222 220 219 219 218 217 217 218 219 220 222 225 228 229 230 229 229 228 228 229 231 233
264 263 263 261 258 256 255 253 249 244 239 231 224 218 212 206 203 202 203 203 205 208 211 213 214 216 218 219 219 218 219 220 219 218 213 205 199 196 199 201 204 209 216 220 221 221 221 223 222 221 218 218 221 224 229 227 224 221 218 218 218 219 222 224 224 224 223 222 220 219 220 222 223 224 225 229 232 234 234 233 232 230 229 229 231 233
263 261 260 259 258 257 256 255 252 249 244 235 227 218 211 205 202 201 201 202 205 207 211 213 215 217 220 221 220 219 218 218 218 217 214 206 198 195 195 197 199 204 211 215 217 216 216 218 220 220 218 217 217 219 225 227 227 226 224 222 219 218 220 223 225 226 226 226 224 222 220 222 223 224 224 228 233 236 237 237 235 234 231 231 232 234